When you browse on this site, cookies collect data to enhance your experience and personalize the content and advertising you see.
Visit our Privacy Policy to learn more. By continuing to use the site, you agree to this use of cookies and data.
  • In Schweiz
  • Länderverzeichnis
  • Für 7 Tage
  • Wassertemperatur
  • Satellitenkarten
  • Wetterkarte
  • Widgets
  • user-avatar
    Anmelden

    Stündliche Wetter Bischkek

    Heute, 23 März, Samstag

    Zeit Temperatur Niederschläge Wind Luftdruck Luftfeuchtigkeit
    00:00 -15°C° 0 mm 4 m/S 482 mmHg 55%
    01:00 -15°C° 0 mm 4 m/S 482 mmHg 55%
    02:00 -15°C° 0 mm 4 m/S 481 mmHg 56%
    03:00 -15°C° 0 mm 4 m/S 481 mmHg 56%
    04:00 -15°C° 0 mm 3 m/S 481 mmHg 57%
    05:00 -15°C° 0 mm 3 m/S 481 mmHg 57%
    06:00 -14°C° 0 mm 3 m/S 482 mmHg 58%
    07:00 -12°C° 0 mm 2 m/S 483 mmHg 59%
    08:00 -10°C° 0 mm 2 m/S 484 mmHg 59%
    09:00 -9°C° 0 mm 2 m/S 484 mmHg 58%
    10:00 -7°C° 0 mm 1 m/S 484 mmHg 56%
    11:00 -6°C° 0 mm 1 m/S 484 mmHg 54%
    12:00 -6°C° 0 mm 1 m/S 484 mmHg 55%
    13:00 -4°C° 0 mm 1 m/S 484 mmHg 56%
    14:00 -4°C° 0 mm 1 m/S 484 mmHg 56%
    15:00 -6°C° 0 mm 1 m/S 484 mmHg 58%
    16:00 -6°C° 0 mm 1 m/S 484 mmHg 61%
    17:00 -7°C° 0 mm 1 m/S 483 mmHg 63%
    18:00 -8°C° 0 mm 1 m/S 483 mmHg 63%
    19:00 -9°C° 0 mm 1 m/S 482 mmHg 63%
    20:00 -13°C° 0 mm 2 m/S 482 mmHg 63%
    21:00 -13°C° 0 mm 2 m/S 482 mmHg 62%
    22:00 -13°C° 0 mm 2 m/S 482 mmHg 60%
    23:00 -14°C° 0 mm 2 m/S 482 mmHg 59%

    Morgen, 24 März, Sonntag

    Zeit Temperatur Niederschläge Wind Luftdruck Luftfeuchtigkeit
    00:00 -14°C° 0 mm 2 m/S 482 mmHg 59%
    01:00 -15°C° 0 mm 2 m/S 481 mmHg 58%
    02:00 -15°C° 0 mm 2 m/S 481 mmHg 58%
    03:00 -15°C° 0.1 mm 2 m/S 482 mmHg 58%
    04:00 -15°C° 0.1 mm 2 m/S 482 mmHg 58%
    05:00 -15°C° 0.1 mm 2 m/S 482 mmHg 58%
    06:00 -14°C° 0 mm 2 m/S 482 mmHg 59%
    07:00 -14°C° 0 mm 2 m/S 483 mmHg 60%
    08:00 -13°C° 0 mm 2 m/S 483 mmHg 61%
    09:00 -12°C° 0 mm 2 m/S 484 mmHg 63%
    10:00 -10°C° 0 mm 2 m/S 484 mmHg 66%
    11:00 -9°C° 0 mm 2 m/S 485 mmHg 69%
    12:00 -9°C° 0 mm 2 m/S 485 mmHg 69%
    13:00 -8°C° 0 mm 2 m/S 485 mmHg 69%
    14:00 -8°C° 0 mm 2 m/S 485 mmHg 69%
    15:00 -9°C° 0 mm 2 m/S 484 mmHg 72%
    16:00 -8°C° 0 mm 1 m/S 484 mmHg 75%
    17:00 -8°C° 0 mm 1 m/S 484 mmHg 77%
    18:00 -9°C° 0 mm 1 m/S 483 mmHg 77%
    19:00 -10°C° 0 mm 1 m/S 483 mmHg 76%
    20:00 -11°C° 0 mm 1 m/S 483 mmHg 75%
    21:00 -14°C° 0 mm 2 m/S 482 mmHg 69%
    22:00 -14°C° 0 mm 2 m/S 482 mmHg 62%
    23:00 -15°C° 0 mm 3 m/S 482 mmHg 56%

    übermorgen, 25 März, Montag

    Zeit Temperatur Niederschläge Wind Luftdruck Luftfeuchtigkeit
    00:00 -15°C° 0 mm 3 m/S 482 mmHg 53%
    01:00 -16°C° 0 mm 3 m/S 482 mmHg 51%
    02:00 -16°C° 0 mm 3 m/S 482 mmHg 49%
    03:00 -16°C° 0 mm 3 m/S 482 mmHg 52%
    04:00 -16°C° 0 mm 3 m/S 482 mmHg 54%
    05:00 -16°C° 0 mm 3 m/S 482 mmHg 57%
    06:00 -15°C° 0 mm 3 m/S 482 mmHg 59%
    07:00 -14°C° 0 mm 3 m/S 483 mmHg 62%
    08:00 -12°C° 0 mm 2 m/S 484 mmHg 64%
    09:00 -10°C° 0 mm 2 m/S 485 mmHg 64%
    10:00 -9°C° 0 mm 2 m/S 485 mmHg 64%
    11:00 -8°C° 0 mm 2 m/S 486 mmHg 64%
    12:00 -8°C° 0.1 mm 2 m/S 486 mmHg 65%
    13:00 -7°C° 0.1 mm 2 m/S 486 mmHg 65%
    14:00 -7°C° 0.1 mm 2 m/S 486 mmHg 65%
    15:00 -6°C° 0.1 mm 1 m/S 486 mmHg 66%
    16:00 -7°C° 0.1 mm 1 m/S 486 mmHg 68%
    17:00 -7°C° 0.1 mm 1 m/S 486 mmHg 69%
    18:00 -9°C° 0 mm 2 m/S 485 mmHg 70%
    19:00 -13°C° 0 mm 3 m/S 484 mmHg 71%
    20:00 -14°C° 0 mm 3 m/S 484 mmHg 72%
    21:00 -14°C° 0 mm 3 m/S 484 mmHg 68%
    22:00 -16°C° 0 mm 4 m/S 483 mmHg 65%
    23:00 -16°C° 0 mm 4 m/S 483 mmHg 61%

    26 März, Dienstag

    Zeit Temperatur Niederschläge Wind Luftdruck Luftfeuchtigkeit
    00:00 -16°C° 0 mm 4 m/S 483 mmHg 59%
    01:00 -16°C° 0 mm 4 m/S 483 mmHg 57%
    02:00 -16°C° 0 mm 4 m/S 483 mmHg 55%
    03:00 -16°C° 0 mm 4 m/S 483 mmHg 55%
    04:00 -16°C° 0 mm 4 m/S 483 mmHg 55%
    05:00 -16°C° 0 mm 4 m/S 483 mmHg 55%
    06:00 -15°C° 0 mm 4 m/S 484 mmHg 56%
    07:00 -14°C° 0 mm 4 m/S 485 mmHg 57%
    08:00 -11°C° 0 mm 4 m/S 486 mmHg 58%
    09:00 -10°C° 0 mm 4 m/S 487 mmHg 57%
    10:00 -8°C° 0 mm 4 m/S 488 mmHg 56%
    11:00 -7°C° 0 mm 4 m/S 489 mmHg 54%
    12:00 -5°C° 0 mm 4 m/S 489 mmHg 53%
    13:00 -5°C° 0 mm 4 m/S 489 mmHg 52%
    14:00 -4°C° 0 mm 3 m/S 489 mmHg 52%
    15:00 -5°C° 0 mm 4 m/S 488 mmHg 53%
    16:00 -7°C° 0 mm 4 m/S 487 mmHg 54%
    17:00 -7°C° 0 mm 4 m/S 487 mmHg 55%
    18:00 -8°C° 0 mm 5 m/S 486 mmHg 49%
    19:00 -10°C° 0 mm 5 m/S 485 mmHg 43%
    20:00 -11°C° 0 mm 6 m/S 485 mmHg 37%
    21:00 -11°C° 0 mm 5 m/S 485 mmHg 37%
    22:00 -11°C° 0 mm 5 m/S 485 mmHg 37%
    23:00 -11°C° 0 mm 5 m/S 485 mmHg 37%

    27 März, Mittwoch

    Zeit Temperatur Niederschläge Wind Luftdruck Luftfeuchtigkeit
    00:00 -11°C° 0 mm 5 m/S 485 mmHg 38%
    01:00 -9°C° 0 mm 4 m/S 485 mmHg 39%
    02:00 -9°C° 0 mm 4 m/S 485 mmHg 41%
    03:00 -9°C° 0 mm 4 m/S 485 mmHg 42%
    04:00 -9°C° 0 mm 4 m/S 485 mmHg 43%
    05:00 -9°C° 0 mm 4 m/S 485 mmHg 44%
    06:00 -8°C° 0 mm 4 m/S 486 mmHg 46%
    07:00 -6°C° 0 mm 3 m/S 486 mmHg 48%
    08:00 -6°C° 0 mm 3 m/S 487 mmHg 50%
    09:00 -5°C° 0 mm 3 m/S 487 mmHg 49%
    10:00 -4°C° 0 mm 3 m/S 488 mmHg 48%
    11:00 -2°C° 0 mm 3 m/S 488 mmHg 47%
    12:00 -4°C° 0.1 mm 3 m/S 488 mmHg 50%
    13:00 -4°C° 0.1 mm 3 m/S 487 mmHg 53%
    14:00 -4°C° 0.1 mm 3 m/S 487 mmHg 56%
    15:00 -4°C° 0.1 mm 3 m/S 487 mmHg 57%
    16:00 -4°C° 0.1 mm 3 m/S 487 mmHg 59%
    17:00 -4°C° 0.1 mm 3 m/S 487 mmHg 60%
    18:00 -5°C° 0 mm 3 m/S 486 mmHg 59%
    19:00 -7°C° 0 mm 4 m/S 486 mmHg 58%
    20:00 -8°C° 0 mm 4 m/S 485 mmHg 56%
    21:00 -7°C° 0.1 mm 4 m/S 485 mmHg 57%
    22:00 -7°C° 0.1 mm 4 m/S 485 mmHg 57%
    23:00 -7°C° 0.1 mm 4 m/S 485 mmHg 57%

    28 März, Donnerstag

    Zeit Temperatur Niederschläge Wind Luftdruck Luftfeuchtigkeit
    00:00 -7°C° 0.2 mm 4 m/S 485 mmHg 58%
    01:00 -5°C° 0.2 mm 4 m/S 485 mmHg 59%
    02:00 -5°C° 0.2 mm 3 m/S 485 mmHg 60%
    03:00 -6°C° 0.1 mm 3 m/S 485 mmHg 61%
    04:00 -5°C° 0.1 mm 2 m/S 485 mmHg 62%
    05:00 -5°C° 0.1 mm 2 m/S 485 mmHg 62%
    06:00 -5°C° 0.4 mm 2 m/S 485 mmHg 67%
    07:00 -5°C° 0.4 mm 2 m/S 485 mmHg 71%
    08:00 -3°C° 0.4 mm 1 m/S 486 mmHg 75%
    09:00 -4°C° 0.3 mm 2 m/S 486 mmHg 78%
    10:00 -4°C° 0.3 mm 2 m/S 486 mmHg 81%
    11:00 -5°C° 0.3 mm 3 m/S 487 mmHg 84%
    12:00 -4°C° 0.2 mm 2 m/S 487 mmHg 85%
    13:00 -4°C° 0.2 mm 2 m/S 487 mmHg 87%
    14:00 -4°C° 0.2 mm 2 m/S 487 mmHg 89%
    15:00 -4°C° 0.6 mm 2 m/S 487 mmHg 88%
    16:00 -2°C° 0.6 mm 1 m/S 487 mmHg 87%
    17:00 -2°C° 0.6 mm 1 m/S 487 mmHg 86%
    18:00 -3°C° 0.7 mm 1 m/S 486 mmHg 86%
    19:00 -5°C° 0.7 mm 2 m/S 486 mmHg 86%
    20:00 -6°C° 0.7 mm 2 m/S 486 mmHg 85%
    21:00 -6°C° 0.3 mm 2 m/S 486 mmHg 84%
    22:00 -4°C° 0.3 mm 1 m/S 486 mmHg 83%
    23:00 -6°C° 0.3 mm 1 m/S 485 mmHg 82%
    Mehr zeigen